Location: Antioch Church
(34.9543°N, 88.5145°W)
Time: 20:02:28
(UTC+00:00)

Cosmos 1420 Rocket - Pass Details

Date: 11 December 2019
Orbit: 754 x 781 km, 74.0° (Epoch: 28 January)

Event Time Altitude Azimuth Distance (km) Brightness Sun altitude
Exits shadow 10:25:05 57° 148° (SSE) 888 4.4 -29.2°
Maximum altitude 10:25:50 65° 104° (ESE) 830 4.2 -29.1°
Drops below altitude 10° 10:30:57 10° 24° (NNE) 2,286 6.6 -28.0°
Sets 10:33:20 0° 21° (NNE) 3,213 7.4 -27.6°
